ATLAS D R/B, 1616

Orbit data source: Space-Track

ATLAS D R/B, 1616 is space debris in LEO originally from a launch on Tue, 05 Oct 1965 UTC launched from the Air Force Western Test Range (AFWTR). Debris objects in space refer to the collection of defunct objects orbiting the Earth. Examples of debris include non-operational satellites, rocket bodies, and fragments generated from explosions, collisions, or faulty payload assembly.

Loading next visibility...
Identifier
1616, 1965-078B
Orbit
LEO
Country
Flag of USUS
Related business
Manufacturer
ABL
Mission
Spacecraft
Bus & Motor
ALTAIR, Unknown motor
Mass
70 kg wet, 70 kg dry
Launch date (UTC)
1965-10-05 (61 years ago)
Launch vehicle
Unknown
Launch site
Air Force Western Test Range (AFWTR)
Object type
Payload
Rocket body
Debris
Shape & HBR
Unknown
Radar Cross Section
Medium (>0.1 m² and <1 m²)

Expand to show TLE details & history
Last TLE update: 9 hours ago

TLE from 9 hours ago
0 ATLAS D R/B
1 01616U 65078B   26105.84089034  .00002866  00000-0  21225-3 0  9997
2 01616 144.2350 331.8032 0968575 108.0346 262.8117 13.37212984742366
Epoch: 2026-04-15T20:10Z
TLE epoch observation values (Epoch: 2026-04-15T20:10:52.925Z)
Latitude
-0.00003°
Longitude
-174.91428°
Altitude
1,277.134 km
Speed
7.143 km/s
True Right ascension
22h 07m 12s
True Declination
0° 00' 00"
Sunlit
Object was in daylight at epoch
Visualization orbit readout
Latitude
Unknown
Longitude
Unknown
Altitude
Unknown
Speed
Unknown
Apparent Right ascension
Unknown
Apparent Declination
Unknown
Sunlit
N/A
Visualization observer readout
Local Sidereal Time
12:04:22
Azimuth
Unknown
Elevation
Unknown
Doppler factor
Unknown
Orbital elements
Apogee altitude
1,849.091 km
Perigee altitude
396.088 km
Semi-major axis
7,500.726 km
Eccentricity
0.09686
Inclination
144.235°
RAAN
331.8032°
Arg. of periapsis
108.0346°
True anomaly
252.02819°
Mean anomaly
262.8117°
Eccentric anomaly
257.39591°
Mean motion
3.34109 °/min
Orbital period
107.75 mins
BSTAR
0.00021225
Loading maneuver chart data...
Computing Atmospheric mass density...
Loading historical data...
Loading historical data...
Loading historical data...
Loading historical data...
Loading historical data...
Loading historical data...
Loading historical data...
Other satellites on launch #78 in the year 1965 (1965-10-05 UTC)

Documentation

Showing up to 5 results
|